Location: Huppendorf
(49.9333°N, 11.1500°E)
Time: 15:31:45
(UTC+00:00)

STARLINK-45 - Pass Details

Date: 27 February 2020
Orbit: 529 x 530 km, 53.0° (Epoch: 08 April)

Event Time Altitude Azimuth Distance (km) Brightness Sun altitude
Rises 17:25:24 0° 267° (W) 2,668 10.0 -5.9°
Reaches altitude 10° 17:27:39 10° 271° (W) 1,779 8.0 -6.3°
Maximum altitude 17:31:38 58° 351° (N) 624 3.9 -6.9°
Drops below altitude 10° 17:35:38 10° 72° (ENE) 1,784 5.6 -7.6°
Enters shadow 17:35:48 - 72° (ENE) 1,852 5.7 -7.6°
